QPF
0.00 0.00 0.00 0.00 0.00 0.00 0.00 0.00 0.00 0.00 0.00 0.00 0.00 0.00 0.00 0.00 0.01 0.01 0.01 0.01 0.01 0.01 0.01 0.00 0.00 0.00 0.01 0.01 0.02 0.04 0.05 0.06 0.07 0.08 0.11 0.12 0.11 0.10 0.07 0.08 0.08 0.08 0.08 0.09
0.00 0.00 0.00 0.00 0.00 0.00 0.00 0.00 0.00 0.00 0.00 0.00 0.00 0.00 0.00 0.00 0.00 0.00 0.01 0.01 0.01 0.01 0.00 0.00 0.00 0.00 0.00 0.01 0.03 0.09 0.11 0.07 0.07 0.11 0.14 0.12 0.10 0.09 0.07 0.05 0.06 0.09 0.08 0.08
0.00 0.00 0.00 0.00 0.00 0.00 0.00 0.00 0.00 0.00 0.00 0.00 0.00 0.00 0.00 0.00 0.01 0.01 0.01 0.01 0.01 0.01 0.01 0.01 0.01 0.01 0.01 0.03 0.04 0.08 0.14 0.13 0.09 0.09 0.13 0.13 0.11 0.07 0.05 0.05 0.06 0.09 0.09 0.08
0.00 0.00 0.00 0.00 0.00 0.00 0.00 0.00 0.00 0.00 0.00 0.00 0.00 0.00 0.00 0.00 0.00 0.00 0.01 0.01 0.01 0.01 0.02 0.02 0.02 0.02 0.01 0.02 0.04 0.05 0.06 0.06 0.06 0.05 0.08 0.09 0.12 0.11 0.07 0.07 0.07 0.10 0.10 0.08
0.00 0.00 0.00 0.00 0.00 0.00 0.00 0.00 0.00 0.00 0.00 0.00 0.00 0.00 0.00 0.00 0.00 0.00 0.01 0.01 0.02 0.02 0.02 0.04 0.05 0.04 0.03 0.02 0.03 0.04 0.03 0.03 0.03 0.03 0.05 0.05 0.09 0.09 0.06 0.05 0.06 0.07 0.08 0.08
0.00 0.00 0.00 0.00 0.00 0.00 0.00 0.00 0.00 0.00 0.00 0.00 0.00 0.00 0.00 0.00 0.00 0.00 0.01 0.03 0.03 0.02 0.03 0.04 0.04 0.04 0.02 0.02 0.04 0.04 0.03 0.01 0.01 0.02 0.02 0.03 0.04 0.03 0.03 0.03 0.05 0.07 0.08 0.08
0.00 0.00 0.00 0.00 0.00 0.00 0.00 0.00 0.00 0.00 0.00 0.00 0.00 0.00 0.00 0.00 0.00 0.00 0.01 0.02 0.02 0.05 0.06 0.04 0.03 0.02 0.02 0.02 0.05 0.07 0.05 0.03 0.02 0.02 0.02 0.03 0.03 0.02 0.02 0.03 0.05 0.07 0.07 0.07
0.00 0.00 0.00 0.00 0.00 0.00 0.00 0.00 0.00 0.00 0.00 0.00 0.00 0.00 0.00 0.00 0.00 0.00 0.01 0.01 0.05 0.08 0.07 0.06 0.03 0.02 0.02 0.04 0.10 0.15 0.11 0.06 0.06 0.05 0.05 0.05 0.04 0.04 0.04 0.05 0.07 0.09 0.07 0.07
0.00 0.00 0.00 0.00 0.00 0.00 0.00 0.00 0.00 0.00 0.00 0.00 0.00 0.00 0.01 0.00 0.00 0.00 0.00 0.02 0.09 0.11 0.07 0.04 0.03 0.03 0.05 0.11 0.11 0.09 0.05 0.05 0.07 0.07 0.07 0.05 0.04 0.04 0.04 0.05 0.05 0.06 0.06 0.06
0.00 0.00 0.00 0.00 0.00 0.00 0.00 0.00 0.00 0.00 0.00 0.00 0.00 0.00 0.00 0.00 0.00 0.00 0.01 0.02 0.05 0.04 0.02 0.03 0.03 0.03 0.03 0.04 0.03 0.02 0.02 0.03 0.04 0.05 0.04 0.03 0.02 0.02 0.02 0.02 0.02 0.02 0.03 0.03
0.00 0.00 0.00 0.00 0.00 0.00 0.00 0.00 0.00 0.00 0.00 0.00 0.00 0.00 0.00 0.00 0.00 0.00 0.00 0.01 0.02 0.02 0.02 0.02 0.02 0.02 0.01 0.01 0.01 0.01 0.01 0.02 0.02 0.02 0.01 0.01 0.01 0.01 0.01 0.01 0.01 0.01 0.01 0.02
0.00 0.00 0.00 0.00 0.00 0.00 0.00 0.00 0.00 0.00 0.00 0.00 0.00 0.00 0.00 0.00 0.00 0.00 0.00 0.00 0.01 0.01 0.01 0.02 0.01 0.01 0.02 0.02 0.01 0.01 0.01 0.01 0.01 0.01 0.01 0.01 0.01 0.01 0.01 0.01 0.03 0.02 0.02 0.01
0.00 0.00 0.00 0.00 0.00 0.00 0.00 0.00 0.00 0.00 0.00 0.00 0.00 0.00 0.00 0.00 0.00 0.00 0.00 0.00 0.00 0.01 0.01 0.01 0.02 0.02 0.04 0.03 0.01 0.01 0.01 0.01 0.01 0.01 0.01 0.01 0.02 0.02 0.02 0.03 0.04 0.03 0.03 0.02
0.00 0.00 0.00 0.00 0.00 0.00 0.00 0.00 0.00 0.00 0.00 0.00 0.00 0.00 0.00 0.00 0.00 0.00 0.00 0.00 0.00 0.00 0.00 0.01 0.01 0.02 0.02 0.01 0.01 0.01 0.01 0.01 0.01 0.02 0.01 0.01 0.01 0.02 0.02 0.03 0.04 0.05 0.04 0.03
0.00 0.00 0.00 0.00 0.00 0.00 0.00 0.00 0.00 0.00 0.00 0.00 0.00 0.00 0.00 0.00 0.00 0.00 0.00 0.00 0.00 0.00 0.01 0.00 0.01 0.01 0.01 0.01 0.01 0.02 0.02 0.02 0.02 0.02 0.01 0.01 0.01 0.01 0.01 0.02 0.03 0.04 0.04 0.04
0.00 0.00 0.00 0.00 0.00 0.00 0.00 0.00 0.00 0.00 0.00 0.00 0.00 0.00 0.00 0.00 0.00 0.00 0.01 0.01 0.00 0.00 0.00 0.00 0.00 0.01 0.01 0.02 0.01 0.02 0.02 0.03 0.02 0.02 0.02 0.02 0.01 0.02 0.02 0.03 0.03 0.04 0.05 0.06
0.00 0.00 0.00 0.00 0.00 0.00 0.00 0.00 0.00 0.00 0.00 0.00 0.00 0.00 0.00 0.00 0.00 0.00 0.01 0.01 0.00 0.00 0.00 0.00 0.01 0.01 0.02 0.02 0.03 0.03 0.04 0.04 0.04 0.04 0.04 0.03 0.04 0.05 0.04 0.04 0.03 0.04 0.04 0.05
0.00 0.00 0.00 0.00 0.00 0.00 0.00 0.00 0.00 0.00 0.00 0.00 0.00 0.00 0.00 0.00 0.00 0.00 0.00 0.01 0.00 0.00 0.00 0.01 0.01 0.03 0.03 0.04 0.05 0.06 0.05 0.05 0.06 0.06 0.05 0.06 0.08 0.08 0.05 0.05 0.06 0.05 0.03 0.04
0.00 0.00 0.00 0.00 0.00 0.00 0.00 0.00 0.00 0.00 0.00 0.00 0.00 0.00 0.00 0.00 0.00 0.00 0.01 0.01 0.00 0.00 0.01 0.01 0.03 0.04 0.04 0.04 0.05 0.05 0.05 0.05 0.06 0.07 0.07 0.08 0.11 0.09 0.07 0.06 0.05 0.04 0.03 0.02
0.00 0.00 0.00 0.00 0.00 0.00 0.00 0.00 0.00 0.00 0.01 0.00 0.00 0.00 0.00 0.00 0.00 0.01 0.01 0.01 0.01 0.01 0.02 0.03 0.04 0.04 0.03 0.04 0.05 0.06 0.05 0.06 0.08 0.10 0.08 0.08 0.07 0.07 0.06 0.05 0.04 0.03 0.03 0.02
0.00 0.00 0.00 0.00 0.00 0.00 0.00 0.00 0.00 0.00 0.00 0.00 0.00 0.00 0.00 0.01 0.01 0.01 0.01 0.01 0.02 0.03 0.04 0.05 0.04 0.03 0.04 0.05 0.06 0.08 0.09 0.11 0.13 0.14 0.12 0.10 0.07 0.05 0.05 0.05 0.05 0.03 0.02 0.02
0.00 0.00 0.00 0.00 0.00 0.00 0.00 0.00 0.00 0.00 0.00 0.01 0.01 0.01 0.01 0.02 0.02 0.01 0.01 0.01 0.02 0.04 0.05 0.05 0.05 0.05 0.05 0.07 0.10 0.13 0.16 0.20 0.21 0.17 0.12 0.09 0.07 0.05 0.04 0.05 0.07 0.05 0.03 0.02
0.00 0.00 0.00 0.00 0.00 0.00 0.00 0.00 0.00 0.00 0.00 0.01 0.01 0.02 0.02 0.02 0.02 0.02 0.03 0.03 0.04 0.04 0.04 0.04 0.05 0.05 0.06 0.07 0.09 0.15 0.14 0.13 0.12 0.10 0.08 0.05 0.04 0.04 0.05 0.05 0.05 0.04 0.02 0.02
0.00 0.00 0.01 0.01 0.01 0.01 0.01 0.01 0.01 0.01 0.01 0.01 0.01 0.03 0.04 0.04 0.04 0.05 0.05 0.05 0.04 0.03 0.04 0.04 0.04 0.04 0.05 0.05 0.06 0.08 0.11 0.13 0.11 0.07 0.05 0.03 0.03 0.03 0.02 0.02 0.02 0.03 0.03 0.02
0.00 0.00 0.01 0.02 0.03 0.03 0.02 0.03 0.02 0.02 0.02 0.02 0.02 0.04 0.08 0.10 0.10 0.10 0.07 0.07 0.05 0.04 0.04 0.03 0.04 0.04 0.04 0.04 0.04 0.05 0.06 0.06 0.06 0.05 0.04 0.04 0.05 0.05 0.05 0.04 0.05 0.05 0.05 0.04
0.01 0.01 0.01 0.02 0.03 0.04 0.04 0.04 0.04 0.03 0.03 0.03 0.03 0.04 0.05 0.08 0.13 0.13 0.09 0.08 0.07 0.07 0.05 0.03 0.03 0.03 0.03 0.03 0.03 0.04 0.05 0.04 0.03 0.03 0.03 0.05 0.06 0.05 0.05 0.04 0.03 0.03 0.03 0.02
MSLP
1012.95 1013.72 1014.31 1014.71 1014.94 1015.04 1015.06 1015.01 1014.91 1014.77 1014.57 1014.30 1013.95 1013.55 1013.12 1012.72 1012.40 1012.22 1012.20 1012.34 1012.61 1012.97 1013.36 1013.72 1014.03 1014.26 1014.43 1014.57 1014.71 1014.90 1015.16 1015.49 1015.88 1016.29 1016.69 1017.03 1017.31 1017.50 1017.62 1017.71 1017.78 1017.88 1018.02 1018.20
1013.62 1014.18 1014.56 1014.78 1014.89 1014.96 1015.01 1015.08 1015.15 1015.18 1015.13 1014.95 1014.62 1014.17 1013.63 1013.10 1012.65 1012.36 1012.27 1012.41 1012.73 1013.18 1013.68 1014.14 1014.51 1014.76 1014.90 1014.97 1015.02 1015.11 1015.29 1015.56 1015.91 1016.32 1016.74 1017.12 1017.41 1017.62 1017.75 1017.82 1017.88 1017.96 1018.09 1018.28
1014.05 1014.38 1014.54 1014.60 1014.62 1014.70 1014.86 1015.12 1015.42 1015.68 1015.83 1015.78 1015.50 1015.01 1014.38 1013.70 1013.09 1012.66 1012.48 1012.58 1012.92 1013.43 1014.00 1014.55 1014.97 1015.24 1015.36 1015.37 1015.34 1015.33 1015.42 1015.62 1015.93 1016.32 1016.74 1017.13 1017.45 1017.67 1017.81 1017.88 1017.93 1018.01 1018.14 1018.34
1014.27 1014.37 1014.34 1014.26 1014.25 1014.40 1014.73 1015.23 1015.81 1016.35 1016.73 1016.84 1016.63 1016.11 1015.37 1014.53 1013.74 1013.14 1012.82 1012.84 1013.14 1013.67 1014.29 1014.88 1015.35 1015.64 1015.75 1015.71 1015.61 1015.52 1015.52 1015.64 1015.90 1016.26 1016.67 1017.06 1017.39 1017.62 1017.76 1017.84 1017.89 1017.97 1018.11 1018.33
1014.36 1014.26 1014.06 1013.91 1013.92 1014.19 1014.73 1015.50 1016.38 1017.21 1017.82 1018.08 1017.94 1017.40 1016.54 1015.53 1014.54 1013.75 1013.27 1013.15 1013.39 1013.88 1014.51 1015.13 1015.62 1015.93 1016.02 1015.96 1015.80 1015.64 1015.56 1015.62 1015.82 1016.14 1016.52 1016.90 1017.23 1017.46 1017.61 1017.69 1017.75 1017.84 1017.99 1018.21
1014.39 1014.13 1013.84 1013.66 1013.74 1014.15 1014.91 1015.95 1017.11 1018.19 1019.01 1019.41 1019.31 1018.73 1017.77 1016.59 1015.41 1014.41 1013.75 1013.49 1013.62 1014.04 1014.64 1015.26 1015.76 1016.07 1016.17 1016.08 1015.89 1015.68 1015.56 1015.56 1015.71 1015.99 1016.33 1016.69 1017.00 1017.23 1017.37 1017.45 1017.52 1017.61 1017.77 1018.01
1014.43 1014.08 1013.74 1013.59 1013.76 1014.32 1015.29 1016.55 1017.92 1019.20 1020.16 1020.65 1020.57 1019.94 1018.87 1017.54 1016.19 1015.02 1014.20 1013.79 1013.80 1014.15 1014.70 1015.29 1015.78 1016.09 1016.19 1016.10 1015.90 1015.67 1015.52 1015.48 1015.59 1015.83 1016.15 1016.48 1016.77 1016.98 1017.12 1017.19 1017.26 1017.36 1017.52 1017.76
1014.49 1014.11 1013.79 1013.70 1013.98 1014.68 1015.79 1017.19 1018.70 1020.07 1021.10 1021.60 1021.50 1020.82 1019.67 1018.25 1016.78 1015.49 1014.54 1014.02 1013.94 1014.20 1014.69 1015.24 1015.72 1016.02 1016.13 1016.05 1015.85 1015.63 1015.47 1015.42 1015.52 1015.73 1016.02 1016.32 1016.59 1016.79 1016.91 1016.98 1017.04 1017.13 1017.30 1017.54
1014.55 1014.21 1013.97 1013.97 1014.34 1015.14 1016.32 1017.77 1019.29 1020.66 1021.65 1022.12 1021.97 1021.24 1020.05 1018.58 1017.07 1015.73 1014.73 1014.16 1014.01 1014.22 1014.65 1015.16 1015.61 1015.91 1016.02 1015.96 1015.79 1015.59 1015.45 1015.42 1015.51 1015.71 1015.99 1016.28 1016.53 1016.71 1016.82 1016.88 1016.93 1017.01 1017.17 1017.40
1014.57 1014.34 1014.21 1014.32 1014.78 1015.61 1016.78 1018.18 1019.61 1020.86 1021.74 1022.10 1021.89 1021.13 1019.94 1018.51 1017.04 1015.75 1014.78 1014.22 1014.06 1014.24 1014.63 1015.10 1015.51 1015.79 1015.91 1015.87 1015.74 1015.58 1015.48 1015.48 1015.60 1015.81 1016.08 1016.37 1016.61 1016.78 1016.88 1016.93 1016.96 1017.03 1017.17 1017.39
1014.50 1014.42 1014.45 1014.67 1015.19 1016.01 1017.09 1018.34 1019.58 1020.63 1021.33 1021.56 1021.28 1020.52 1019.39 1018.07 1016.74 1015.58 1014.73 1014.24 1014.12 1014.30 1014.66 1015.09 1015.46 1015.72 1015.83 1015.82 1015.72 1015.62 1015.57 1015.62 1015.77 1016.01 1016.30 1016.58 1016.82 1016.99 1017.08 1017.12 1017.15 1017.20 1017.32 1017.52
1014.32 1014.44 1014.63 1014.97 1015.51 1016.28 1017.22 1018.26 1019.24 1020.05 1020.53 1020.61 1020.27 1019.54 1018.53 1017.37 1016.25 1015.30 1014.63 1014.27 1014.23 1014.42 1014.77 1015.15 1015.48 1015.70 1015.80 1015.80 1015.74 1015.69 1015.70 1015.80 1016.00 1016.28 1016.59 1016.89 1017.13 1017.30 1017.39 1017.43 1017.45 1017.49 1017.59 1017.76
1014.07 1014.39 1014.74 1015.18 1015.73 1016.41 1017.17 1017.96 1018.67 1019.20 1019.46 1019.41 1019.02 1018.36 1017.50 1016.57 1015.70 1015.00 1014.54 1014.34 1014.38 1014.60 1014.93 1015.26 1015.54 1015.72 1015.80 1015.80 1015.77 1015.77 1015.84 1016.00 1016.25 1016.56 1016.89 1017.21 1017.46 1017.64 1017.74 1017.79 1017.81 1017.85 1017.94 1018.10
1013.81 1014.30 1014.79 1015.30 1015.84 1016.41 1016.99 1017.52 1017.96 1018.23 1018.29 1018.11 1017.71 1017.14 1016.46 1015.77 1015.16 1014.72 1014.47 1014.42 1014.55 1014.80 1015.10 1015.38 1015.60 1015.73 1015.78 1015.79 1015.79 1015.84 1015.96 1016.17 1016.46 1016.81 1017.17 1017.50 1017.77 1017.96 1018.08 1018.15 1018.19 1018.25 1018.34 1018.50
1013.61 1014.24 1014.83 1015.38 1015.88 1016.33 1016.72 1017.02 1017.20 1017.25 1017.14 1016.88 1016.48 1016.01 1015.51 1015.05 1014.69 1014.47 1014.41 1014.50 1014.70 1014.95 1015.22 1015.44 1015.60 1015.68 1015.72 1015.73 1015.76 1015.85 1016.03 1016.29 1016.62 1016.99 1017.37 1017.72 1018.00 1018.22 1018.37 1018.47 1018.55 1018.64 1018.77 1018.93
1013.55 1014.26 1014.89 1015.42 1015.86 1016.19 1016.40 1016.50 1016.47 1016.34 1016.10 1015.78 1015.41 1015.04 1014.70 1014.43 1014.28 1014.25 1014.33 1014.51 1014.74 1014.98 1015.20 1015.37 1015.48 1015.53 1015.56 1015.59 1015.66 1015.81 1016.03 1016.34 1016.71 1017.10 1017.50 1017.86 1018.17 1018.41 1018.60 1018.76 1018.89 1019.04 1019.20 1019.41
1013.68 1014.38 1014.99 1015.47 1015.81 1016.01 1016.07 1015.99 1015.81 1015.54 1015.22 1014.87 1014.53 1014.25 1014.03 1013.92 1013.91 1014.00 1014.17 1014.39 1014.63 1014.84 1015.02 1015.14 1015.22 1015.26 1015.30 1015.37 1015.50 1015.70 1015.99 1016.34 1016.74 1017.16 1017.57 1017.94 1018.27 1018.55 1018.79 1019.00 1019.21 1019.42 1019.65 1019.91
1013.98 1014.61 1015.13 1015.51 1015.73 1015.80 1015.72 1015.52 1015.22 1014.86 1014.49 1014.14 1013.84 1013.62 1013.50 1013.49 1013.57 1013.72 1013.92 1014.15 1014.36 1014.54 1014.67 1014.77 1014.83 1014.89 1014.97 1015.10 1015.30 1015.57 1015.92 1016.32 1016.75 1017.19 1017.61 1018.00 1018.35 1018.67 1018.96 1019.23 1019.51 1019.80 1020.11 1020.42
1014.40 1014.90 1015.28 1015.52 1015.62 1015.56 1015.37 1015.07 1014.70 1014.30 1013.91 1013.57 1013.31 1013.15 1013.09 1013.13 1013.24 1013.42 1013.61 1013.81 1013.99 1014.13 1014.23 1014.31 1014.39 1014.49 1014.63 1014.84 1015.11 1015.46 1015.87 1016.31 1016.78 1017.23 1017.66 1018.06 1018.43 1018.78 1019.12 1019.45 1019.81 1020.17 1020.55 1020.92
1014.84 1015.17 1015.40 1015.49 1015.45 1015.28 1015.00 1014.64 1014.24 1013.84 1013.47 1013.16 1012.95 1012.83 1012.81 1012.87 1012.99 1013.15 1013.32 1013.48 1013.61 1013.72 1013.81 1013.89 1014.00 1014.15 1014.36 1014.64 1014.99 1015.40 1015.87 1016.35 1016.83 1017.30 1017.73 1018.14 1018.52 1018.89 1019.26 1019.65 1020.06 1020.49 1020.93 1021.36
1015.22 1015.38 1015.44 1015.39 1015.24 1014.98 1014.65 1014.27 1013.87 1013.49 1013.17 1012.91 1012.75 1012.68 1012.69 1012.76 1012.88 1013.02 1013.15 1013.27 1013.37 1013.45 1013.53 1013.62 1013.76 1013.95 1014.22 1014.56 1014.97 1015.43 1015.92 1016.43 1016.92 1017.38 1017.81 1018.21 1018.59 1018.98 1019.37 1019.80 1020.25 1020.72 1021.20 1021.67
1015.45 1015.47 1015.39 1015.23 1014.99 1014.68 1014.33 1013.96 1013.60 1013.29 1013.03 1012.85 1012.75 1012.73 1012.77 1012.87 1012.98 1013.10 1013.20 1013.29 1013.35 1013.41 1013.48 1013.58 1013.73 1013.95 1014.25 1014.62 1015.05 1015.53 1016.03 1016.52 1017.00 1017.44 1017.85 1018.24 1018.62 1019.00 1019.41 1019.85 1020.32 1020.82 1021.33 1021.82
1015.52 1015.43 1015.26 1015.02 1014.73 1014.41 1014.08 1013.76 1013.48 1013.25 1013.08 1012.99 1012.97 1013.01 1013.10 1013.21 1013.33 1013.44 1013.53 1013.59 1013.63 1013.67 1013.72 1013.80 1013.95 1014.16 1014.45 1014.80 1015.21 1015.67 1016.13 1016.59 1017.03 1017.45 1017.83 1018.19 1018.56 1018.93 1019.33 1019.77 1020.25 1020.75 1021.26 1021.77
1015.44 1015.28 1015.06 1014.80 1014.51 1014.22 1013.94 1013.70 1013.51 1013.39 1013.33 1013.34 1013.40 1013.52 1013.65 1013.80 1013.94 1014.05 1014.12 1014.16 1014.18 1014.19 1014.21 1014.26 1014.36 1014.52 1014.76 1015.05 1015.40 1015.79 1016.19 1016.60 1016.98 1017.35 1017.70 1018.04 1018.38 1018.74 1019.13 1019.56 1020.02 1020.52 1021.02 1021.52
1015.27 1015.09 1014.86 1014.61 1014.36 1014.13 1013.94 1013.80 1013.72 1013.71 1013.76 1013.86 1014.02 1014.20 1014.39 1014.57 1014.73 1014.84 1014.91 1014.93 1014.92 1014.89 1014.86 1014.85 1014.88 1014.96 1015.10 1015.30 1015.56 1015.85 1016.16 1016.49 1016.82 1017.14 1017.45 1017.76 1018.09 1018.44 1018.81 1019.22 1019.67 1020.14 1020.63 1021.11
1015.08 1014.91 1014.71 1014.51 1014.33 1014.18 1014.09 1014.05 1014.08 1014.17 1014.32 1014.51 1014.74 1014.98 1015.21 1015.42 1015.59 1015.70 1015.76 1015.76 1015.72 1015.64 1015.55 1015.46 1015.39 1015.37 1015.40 1015.48 1015.62 1015.81 1016.03 1016.27 1016.54 1016.81 1017.10 1017.39 1017.71 1018.04 1018.41 1018.80 1019.22 1019.67 1020.13 1020.59
Thickness
5816 5803 5793 5801 5807 5807 5802 5794 5789 5799 5815 5810 5802 5802 5806 5811 5809 5804 5800 5798 5796 5795 5795 5793 5790 5786 5781 5775 5771 5766 5762 5758 5754 5750 5746 5743 5741 5741 5740 5739 5738 5738 5737 5736
5795 5793 5808 5814 5813 5808 5803 5794 5794 5804 5815 5809 5800 5799 5807 5810 5810 5809 5805 5801 5799 5795 5793 5791 5789 5786 5781 5776 5773 5768 5764 5760 5757 5754 5750 5747 5744 5743 5742 5740 5739 5738 5737 5736
5792 5800 5815 5813 5808 5804 5802 5798 5799 5800 5806 5805 5799 5791 5799 5808 5812 5811 5809 5806 5803 5798 5793 5790 5788 5786 5782 5777 5774 5771 5766 5762 5759 5756 5751 5748 5744 5742 5740 5739 5739 5739 5738 5737
5795 5806 5811 5809 5807 5806 5796 5812 5810 5804 5790 5777 5788 5767 5791 5798 5802 5806 5807 5806 5804 5802 5797 5793 5790 5786 5783 5780 5777 5772 5767 5763 5760 5757 5752 5748 5743 5740 5740 5739 5739 5739 5738 5737
5790 5804 5807 5804 5811 5813 5808 5812 5805 5797 5786 5773 5777 5768 5778 5794 5795 5803 5808 5809 5808 5806 5802 5797 5793 5788 5785 5781 5777 5772 5768 5763 5760 5757 5753 5749 5745 5743 5741 5740 5739 5738 5738 5737
5795 5810 5813 5813 5819 5819 5812 5799 5788 5775 5768 5755 5770 5765 5770 5784 5797 5805 5811 5812 5811 5808 5804 5799 5795 5790 5785 5781 5777 5772 5767 5763 5760 5757 5753 5750 5746 5744 5741 5740 5738 5737 5737 5737
5785 5799 5813 5820 5809 5808 5801 5774 5748 5746 5738 5745 5765 5764 5771 5801 5811 5813 5814 5814 5814 5811 5805 5799 5794 5789 5784 5780 5776 5771 5767 5763 5760 5757 5753 5751 5748 5745 5742 5740 5739 5737 5736 5736
5764 5767 5799 5812 5807 5796 5791 5778 5748 5737 5733 5742 5759 5761 5786 5811 5819 5822 5821 5818 5815 5810 5806 5801 5796 5791 5786 5782 5778 5772 5767 5763 5760 5757 5754 5751 5748 5746 5743 5741 5739 5737 5736 5735
5757 5765 5799 5812 5815 5802 5784 5774 5773 5747 5743 5740 5749 5767 5792 5812 5814 5817 5817 5815 5812 5810 5807 5803 5798 5794 5788 5783 5779 5774 5768 5764 5760 5757 5754 5750 5748 5746 5743 5741 5739 5737 5736 5735
5770 5767 5789 5801 5806 5798 5794 5773 5755 5743 5728 5730 5747 5757 5770 5796 5804 5809 5810 5811 5811 5809 5807 5803 5799 5795 5789 5784 5779 5775 5769 5764 5761 5757 5754 5750 5748 5746 5744 5741 5738 5736 5735 5733
5777 5764 5772 5786 5788 5783 5779 5768 5751 5737 5740 5727 5733 5753 5793 5800 5806 5807 5810 5812 5811 5809 5806 5803 5799 5795 5790 5784 5779 5774 5769 5765 5761 5757 5753 5750 5747 5745 5742 5740 5738 5735 5733 5731
5769 5752 5749 5768 5788 5795 5791 5775 5760 5748 5738 5732 5734 5755 5807 5807 5810 5810 5810 5811 5810 5809 5806 5803 5798 5793 5787 5782 5778 5774 5770 5766 5762 5757 5753 5749 5746 5743 5740 5738 5736 5734 5731 5729
5764 5746 5735 5746 5760 5778 5780 5773 5767 5753 5735 5725 5733 5762 5804 5807 5810 5811 5810 5810 5808 5806 5803 5800 5796 5791 5786 5782 5778 5774 5770 5766 5762 5757 5752 5748 5744 5741 5738 5735 5733 5730 5728 5726
5770 5744 5738 5735 5746 5766 5771 5769 5763 5757 5738 5733 5744 5767 5790 5799 5803 5807 5808 5807 5805 5803 5800 5796 5792 5789 5785 5782 5778 5774 5770 5766 5761 5756 5750 5746 5742 5739 5735 5732 5729 5726 5724 5722
5764 5745 5749 5756 5766 5771 5774 5772 5766 5766 5758 5751 5761 5766 5786 5797 5803 5806 5806 5804 5802 5798 5796 5794 5791 5787 5784 5780 5776 5773 5768 5764 5759 5754 5748 5744 5740 5736 5733 5729 5726 5723 5720 5717
5749 5743 5745 5752 5762 5767 5769 5772 5769 5770 5767 5767 5772 5774 5794 5799 5802 5802 5802 5800 5798 5797 5796 5793 5790 5786 5782 5778 5774 5770 5766 5761 5756 5751 5745 5741 5737 5733 5729 5725 5722 5718 5715 5712
5734 5734 5728 5729 5750 5756 5747 5765 5767 5770 5772 5771 5768 5781 5792 5792 5795 5798 5799 5799 5798 5797 5795 5791 5788 5785 5780 5776 5772 5767 5763 5759 5753 5746 5742 5738 5734 5729 5725 5722 5718 5713 5710 5708
5729 5723 5716 5718 5732 5721 5746 5772 5775 5771 5772 5776 5781 5785 5788 5792 5796 5799 5800 5798 5796 5795 5793 5789 5786 5782 5778 5774 5770 5764 5760 5754 5748 5742 5738 5734 5730 5725 5720 5716 5712 5707 5703 5701
5730 5722 5709 5704 5710 5724 5748 5766 5768 5764 5765 5776 5777 5782 5786 5791 5791 5790 5796 5797 5795 5793 5791 5788 5785 5781 5775 5771 5766 5760 5754 5749 5743 5738 5733 5729 5726 5721 5716 5711 5706 5701 5697 5693
5718 5718 5708 5701 5705 5707 5737 5764 5773 5766 5754 5773 5775 5776 5780 5783 5772 5779 5792 5793 5791 5789 5786 5783 5779 5774 5769 5764 5760 5754 5747 5742 5737 5732 5728 5724 5720 5715 5710 5705 5700 5695 5691 5686
5702 5700 5699 5698 5704 5715 5743 5758 5764 5741 5748 5770 5772 5773 5775 5775 5777 5783 5787 5786 5785 5783 5781 5777 5771 5766 5762 5758 5753 5747 5741 5736 5732 5727 5721 5717 5713 5709 5704 5698 5693 5688 5684 5679
5690 5690 5689 5690 5697 5709 5744 5750 5745 5747 5761 5765 5767 5770 5771 5772 5775 5777 5777 5777 5776 5774 5772 5768 5762 5757 5753 5750 5746 5740 5734 5730 5726 5722 5715 5709 5705 5702 5697 5691 5685 5680 5676 5671
5684 5690 5691 5697 5704 5723 5734 5740 5748 5752 5754 5758 5761 5764 5766 5765 5765 5765 5765 5765 5764 5764 5761 5758 5753 5749 5745 5742 5739 5733 5727 5723 5718 5713 5707 5702 5696 5692 5687 5682 5677 5672 5668 5663
5681 5687 5688 5695 5707 5719 5727 5735 5742 5747 5749 5752 5755 5757 5758 5756 5756 5755 5753 5752 5751 5751 5750 5747 5744 5739 5735 5732 5729 5725 5720 5716 5710 5704 5698 5693 5688 5682 5676 5672 5668 5665 5660 5656
5675 5679 5682 5687 5700 5711 5720 5726 5732 5738 5742 5744 5745 5747 5748 5748 5746 5745 5743 5740 5739 5738 5737 5736 5733 5730 5726 5723 5720 5716 5712 5708 5702 5696 5690 5684 5679 5674 5667 5662 5658 5655 5651 5648
5666 5671 5676 5681 5694 5698 5706 5716 5724 5726 5728 5732 5733 5733 5736 5738 5737 5736 5734 5732 5730 5727 5725 5724 5723 5720 5717 5714 5711 5707 5703 5699 5695 5688 5682 5676 5670 5665 5659 5654 5647 5643 5641 5638